Regional Weather Roundup
Issued by NWS Upton, NY

Current Version | Previous Version | Text Only | Print | Product List | Glossary On
Versions: 1 2 3 4 5 6 7 8 9 10 11 12 13 14 15 16 17 18 19 20 21 22 23 24 25 26 27 28 29 30 31 32 33 34
000
ASUS41 KOKX 191908
RWROKX

REGIONAL WEATHER ROUNDUP
NATIONAL WEATHER SERVICE NEW YORK NY
200 PM EST SUN NOV 19 2017

NOTE: "FAIR" INDICATES FEW OR NO CLOUDS BELOW 12,000 FEET WITH NO
SIGNIFICANT WEATHER AND/OR OBSTRUCTIONS TO VISIBILITY.

NYZ071-072-176-178-NJZ106-104-192000-
NEW YORK CITY METRO AREA

CITY           SKY/WX    TMP DP  RH WIND       PRES   REMARKS
Central Park   NOT AVBL
Bronx Bot Gard NOT AVBL
LaGuardia APRT PTSUNNY   50  31  48 NW32G41   29.52R
Kennedy INTL   PTSUNNY   51  31  46 NW30G39   29.51R
Breezy Point   NOT AVBL
Newark/Liberty PTSUNNY   51  29  42 NW25G37   29.54R
Teterboro      PTSUNNY   49  30  48 NW21G33   29.53R
$$

NYZ177-179-078>081-192000-
LONG ISLAND NEW YORK

CITY           SKY/WX    TMP DP  RH WIND       PRES   REMARKS
Jones Beach    NOT AVBL
Matinecock PT  NOT AVBL
Farmingdale    PTSUNNY   51  30  44 W22G30    29.50R
MacArthur/ISP  MOSUNNY   49  31  49 NW25G40   29.48R
Shirley        MOSUNNY   50  33  52 NW22G38   29.48R
Mt Sinai Harb  NOT AVBL
Westhampton    MOSUNNY   49  30  48 NW26G41   29.46R
East Hampton   FAIR      49  32  51 NW15G33   29.41R
Southold       NOT AVBL
Montauk        NOT AVBL
$$

NYZ052-065-067-192000-
HUDSON VALLEY

CITY           SKY/WX    TMP DP  RH WIND       PRES   REMARKS
White Plains   PTSUNNY   46  31  55 NW26G36   29.50R
Larchmont Harb NOT AVBL
Croton On Huds NOT AVBL
Newburgh       PTSUNNY   43  32  65 W21G32    29.54F
Montgomery     CLOUDY    43  28  55 NW17G29   29.54R
Poughkeepsie   MOSUNNY   44  28  53 W18G32    29.52R
Albany         PTSUNNY   39  27  62 W25G37    29.51R WCI  28
$$

NJZ001-105-106-008-010-013-015-019>022-104-192000-
NEW JERSEY

CITY           SKY/WX    TMP DP  RH WIND       PRES   REMARKS
Newark/Liberty PTSUNNY   51  29  42 NW25G37   29.54R
Teterboro      PTSUNNY   49  30  48 NW21G33   29.53R
Caldwell       CLOUDY    47  30  51 NW22G37   29.55R
Somerville     PTSUNNY   51  31  46 NW15G33   29.55R
Linden         CLOUDY    51  31  45 NW20G29   29.55R
Perth Amboy    NOT AVBL
Sussex         CLOUDY    44  29  55 W14G25    29.57R
Andover        NOT AVBL
Trenton        CLOUDY    53  31  42 W16G26    29.57R
Millville      SUNNY     56  32  40 W24G33    29.61S
Atlantic City  MOSUNNY   54  32  43 NW30G40   29.57R
Wrightstown    SUNNY     53  30  41 NW18G30   29.54R
Toms River     MOSUNNY   53  31  42 W22G37    29.56R
Belmar         MOSUNNY   52  30  43 W24G35    29.54R
$$

PAZ047>061-062-071-192000-
EASTERN PENNSYLVANIA

CITY           SKY/WX    TMP DP  RH WIND       PRES   REMARKS
Philadelphia   PTSUNNY   52  28  39 NW21G40   29.62R
Allentown      MOSUNNY   48  27  44 W22G30    29.59R
Scranton       CLOUDY    43  26  51 NW16G30   29.59S
$$

CTZ002-004>006-009-010-012-RIZ004-006-007-MAZ004-011-015-192000-
SOUTHERN NEW ENGLAND
 IN CT

CITY           SKY/WX    TMP DP  RH WIND       PRES   REMARKS
Bradley INTL   PTSUNNY   47  28  47 NW26G37   29.42R
Hartford       PTSUNNY   49  28  44 W25G38    29.43R
Danbury        MOSUNNY   46  28  49 W21G35    29.47R
Wtrbury/Oxford PTSUNNY   44  29  55 W15G32    29.44R
Norwalk Harbor NOT AVBL
Bridgeport     MOSUNNY   49  29  46 W22G38    29.45R
Meriden        MOSUNNY   48  28  46 W23G35    29.44R
New Haven      MOSUNNY   50  30  46 W17G31    29.45R
Chester        MOCLDY    50  28  43 W17G28    29.41R
Groton         PTSUNNY   51  32  48 NW16G32   29.38R
Wilimantic     MOSUNNY   48  29  47 W16G40    29.40R

 IN RI

CITY           SKY/WX    TMP DP  RH WIND       PRES   REMARKS
Providence     MOSUNNY   50  34  54 NW17G32   29.34R
Block Island   CLOUDY    51  38  60 W22G33    29.36R
Westerly       SUNNY     52  33  48 W15G32    29.37R
 IN MA

CITY           SKY/WX    TMP DP  RH WIND       PRES   REMARKS
Boston         MOSUNNY   49  32  52 W26G43    29.25R
Worcester      SUNNY     41  26  55 W31G49    29.29R
Westfield      CLOUDY    46  28  49 NW20G26   29.42R
Provincetown   MOSUNNY   51  39  63 W28G36    29.24R
Nantucket      CLOUDY    53  43  68 W29G41    29.28R
$$

ANZ330-335-338-340-345-350-353-355-192000-
COASTAL MARINE OBSERVATIONS


STATION/POSITION TIME  SKY/WX   TEMP    WIND        PRES    VSBY  WAVE
                                AIR SEA DIR/SP/G                  HT/PER
                 (UTC)          (F)     (DEG/KT/KT) (MB)    (MI)  (FT/S)
NY HARB ENTRANCE 1750            52 58  290/ 29/ 37  997.4          7/ 5
20 S FIRE ISLAND NOT AVBL
GREAT SOUTH BAY  1830            48 48  290/ 21/ 33   N/A
HUDSON CANYON    1750            54 60  300/ 31/ 39  997.2         12/10
KINGS POINT      1842            49 52  340/ 27/ 34 1000.1
EXECUTION ROCKS  1815            51     290/ 21/ 31   N/A
WESTERN LI SOUND 1749            49     290/ 25/ 39   N/A           3/ 3
CENTRAL LI SOUND NOT AVBL
ROBBINS REEF     1836            50     300/ 25/ 31  999.9
$$


>>>>>>>>>>>>>>>>>>>>>>>>>>>> KEY <<<<<<<<<<<<<<<<<<<<<<<<<<<
>                                                          <
>     SKY/WX - Sky Condition/Present Weather               <
>     TMP    - Temperature in Fahrenheit                   <
>     DP     - Dew Point in Fahrenheit                     <
>     RH     - Relative Humidity in Percent                <
>     WIND   - Direction (from) and Speed in MPH           <
>     PRES   - Mean Sea Level Pressure (inches of Hg)      <
>     WCI    - Wind Chill Index                            <
>     VSB    - VISIBILITY IN MILES                         <
>     HX     - HEAT INDEX                                  <
>     TC     - TEMPERATURE IN CELSIUS                      <
>     VRB    - VARIABLE WIND DIRECTION                     <
>                                                          <
>>>>>>>>>>>>>>>>>>>>>>>>>>>> KEY <<<<<<<<<<<<<<<<<<<<<<<<<<<




USA.gov is the U.S. government's official web portal to all federal, state and local government web resources and services.